Powrót do katalogu

STARLINK-37237

AktywnyŁącznośćVLEO
NORAD 69185·PAYLOAD·🇺🇸 United States

Wystrzelony May 25, 2026 z Cape Canaveral Space Force Station

Loading…

Następne Przeloty (najbliższe 24 godziny)

TLE

ŚwieżeSource: CelesTrak SupGP

Epoka: Sep 14, 2026, 23:08 UTC

1 69185C 26114D   26257.96437500  .00005582  00000+0  16508-3 0  2578
2 69185  53.1560 139.8839 0001202  87.1379 233.6188 15.34354223    16

Śledź STARLINK-37237 w czasie rzeczywistym z AllMySat

Download on the App Store